Location: Dürabuch
(48.2640°N, 11.2185°E)
Time: 10:03:05
(UTC+00:00)

FENGYUN 3A - Pass Details

Date: 23 May 2024
Orbit: 821 x 835 km, 98.6° (Epoch: 15 June)

Event Time Altitude Azimuth Distance (km) Brightness Sun altitude
Rises 02:14:29 0° 11° (N) 3,372 7.9 -9.9°
Reaches altitude 10° 02:16:53 10° 8° (N) 2,433 7.0 -9.7°
Maximum altitude 02:22:08 58° 290° (WNW) 958 3.9 -9.0°
Drops below altitude 10° 02:27:22 10° 213° (SSW) 2,414 5.4 -8.4°
Enters shadow 02:27:28 10° 213° (SSW) 2,449 5.5 -8.4°
